Weather History for KAVP - November, 2012

Change the Weather History Date:

Saturday, November 10, 2012

  Actual Average Record
Temperature  
Mean Temperature 41 °F 43 °F  
Max Temperature 50 °F 52 °F 73 °F (1948)
Min Temperature 31 °F 35 °F 19 °F (1956)
Degree Days  
Heating Degree Days 24 22  
Month to date heating degree days 265 203  
Since 1 July heating degree days 723 806  
Cooling Degree Days 0 0  
Month to date cooling degree days 0 0  
Year to date cooling degree days 864 580  
Moisture  
Dew Point 34 °F    
Average Humidity 77    
Maximum Humidity 92    
Minimum Humidity 61    
Precipitation  
Precipitation T in 0.10 in 1.73 in (1990)
Month to date precipitation 0.04 1.02  
Year to date precipitation 33.12 33.46  
Sea Level Pressure  
Sea Level Pressure 30.31 in    
Wind  
Wind Speed 1 mph (NNE)    
Max Wind Speed 6 mph    
Max Gust Speed 8 mph    
Visibility 8 miles    
Events      
T = Trace of Precipitation, MM = Missing Value Source: NWS Daily Summary

Daily Weather History Graph

Daily Weather History Graph

Search for Another Location

Airport or City:

Trip Planner

Search our weather history database for the weather conditions in past years. The results will help you decide how hot, cold, wet, or windy it might be!

Date:

Astronomy

Nov. 10, 2012 Rise Set
Actual Time 6:45 AM EST 4:47 PM EST
Civil Twilight 6:16 AM EST 5:16 PM EST
Nautical Twilight 5:43 AM EST 5:50 PM EST
Astronomical Twilight 5:10 AM EST 6:22 PM EST
Moon 2:45 AM EST (11/10) 2:34 PM EST (11/10)
Length of Visible Light 11h 00m
Length of Day
10h 01m
Waning Crescent, 14% of the Moon is Illuminated
Nov 10
Waning Crescent
Nov 13
New
Nov 20
First Quarter
Nov 28
Full
Dec 6
Last Quarter

Hourly Weather History & Observations

Time (EST) Temp. Windchill Dew Point Humidity Pressure Visibility Wind Dir Wind Speed Gust Speed Precip Events Conditions
12:54 AM 33.1 °F - 28.9 °F 85% 30.22 in 9.0 mi Calm Calm - N/A   Clear
1:54 AM 30.9 °F - 28.9 °F 92% 30.23 in 9.0 mi Calm Calm - N/A   Clear
2:54 AM 30.9 °F - 28.0 °F 89% 30.24 in 8.0 mi Calm Calm - N/A   Clear
3:54 AM 34.0 °F - 30.0 °F 85% 30.25 in 8.0 mi Calm Calm - N/A   Mostly Cloudy
4:54 AM 34.0 °F - 30.9 °F 89% 30.26 in 9.0 mi Calm Calm - N/A   Scattered Clouds
5:54 AM 34.0 °F - 30.9 °F 89% 30.29 in 9.0 mi Calm Calm - N/A   Mostly Cloudy
6:54 AM 34.0 °F - 30.9 °F 89% 30.31 in 7.0 mi Calm Calm - N/A   Mostly Cloudy
7:54 AM 36.0 °F 32.1 °F 30.9 °F 82% 30.32 in 7.0 mi NE 4.6 mph - N/A   Overcast
8:54 AM 39.0 °F - 33.1 °F 79% 30.32 in 7.0 mi Calm Calm - N/A   Overcast
9:54 AM 41.0 °F - 34.0 °F 76% 30.33 in 6.0 mi Calm Calm - N/A   Haze
10:54 AM 45.0 °F 42.6 °F 35.1 °F 68% 30.32 in 7.0 mi WNW 4.6 mph - N/A   Overcast
11:54 AM 46.0 °F - 36.0 °F 68% 30.32 in 7.0 mi Calm Calm - 0.00 in   Overcast
12:54 PM 46.9 °F - 36.0 °F 66% 30.31 in 7.0 mi Calm Calm - N/A   Overcast
1:54 PM 48.0 °F - 36.0 °F 63% 30.31 in 8.0 mi WSW 3.5 mph - N/A   Overcast
2:54 PM 48.9 °F - 37.0 °F 64% 30.30 in 7.0 mi Calm Calm - N/A   Overcast
3:54 PM 48.9 °F - 37.0 °F 64% 30.30 in 8.0 mi Calm Calm - N/A   Overcast
4:54 PM 48.0 °F - 37.0 °F 66% 30.32 in 8.0 mi ENE 3.5 mph - N/A   Overcast
5:54 PM 46.9 °F - 37.0 °F 68% 30.32 in 9.0 mi NNE 3.5 mph - N/A   Scattered Clouds
6:54 PM 46.9 °F - 36.0 °F 66% 30.35 in 10.0 mi East 3.5 mph - N/A   Clear
7:54 PM 44.1 °F - 35.1 °F 71% 30.36 in 10.0 mi Calm Calm - N/A   Clear
8:54 PM 46.0 °F - 37.0 °F 71% 30.37 in 10.0 mi Calm Calm - N/A   Mostly Cloudy
9:54 PM 48.0 °F - 36.0 °F 63% 30.37 in 10.0 mi Calm Calm - N/A   Overcast
10:54 PM 48.0 °F - 36.0 °F 63% 30.37 in 9.0 mi Calm Calm - N/A   Overcast
11:54 PM 46.0 °F - 36.0 °F 68% 30.36 in 9.0 mi Calm Calm - N/A   Partly Cloudy